Location: DARK SKY Beskydy - Park tmavé oblohy, www.darkskybeskydy.cz
(49.4926°N, 18.5016°E)
Time: 11:02:02
(UTC+01:00)

Vanguard 2 - All Passes

Search period start: 25 February 2024 00:00
Search period end: 06 March 2024 00:00
Orbit: 553 x 2919 km, 32.9° (Epoch: 24 February)

Date Brightness Start Highest point End Pass type
(mag) Time Alt. Az. Time Alt. Az. Time Alt. Az.
25 Feb - 00:50:43 10° W 01:03:26 27° SSW 01:16:24 10° SSE visible
25 Feb - 18:41:03 10° SSW 18:49:32 27° SSE 19:01:08 10° ESE visible
25 Feb - 20:47:00 10° SW 20:58:20 40° S 21:13:31 10° ESE visible
25 Feb - 22:55:21 10° WSW 23:08:22 37° SSW 23:23:36 10° SE visible
26 Feb - 01:06:31 10° WSW 01:18:02 23° SW 01:29:48 10° S night (unlit)
26 Feb - 16:54:01 10° SSE 16:57:03 12° SE 17:00:29 10° ESE daylight
26 Feb - 18:55:23 10° SSW 19:04:10 30° SSE 19:16:27 10° ESE visible
26 Feb - 21:01:51 10° WSW 21:13:12 40° S 21:28:23 10° ESE visible
26 Feb - 23:10:34 10° WSW 23:23:12 34° SSW 23:37:53 10° SE visible
27 Feb - 01:22:49 10° WSW 01:32:35 18° SW 01:42:35 10° S night (unlit)
27 Feb - 17:06:30 10° S 17:11:25 15° SE 17:17:30 10° ESE daylight
27 Feb - 19:09:54 10° SW 19:18:52 33° SSE 19:31:38 10° ESE visible
27 Feb - 21:16:48 10° WSW 21:28:05 39° S 21:43:07 10° ESE visible
27 Feb - 23:25:55 10° WSW 23:37:58 30° SSW 23:51:53 10° SSE visible
28 Feb - 01:40:06 10° WSW 01:47:05 14° SW 01:54:13 10° SSW night (unlit)
28 Feb - 17:20:03 10° S 17:25:52 19° SE 17:33:30 10° ESE daylight
28 Feb - 19:24:34 10° SW 19:33:37 35° SSE 19:46:41 10° ESE visible
28 Feb - 21:31:49 10° WSW 21:42:58 37° S 21:57:43 10° SE visible
28 Feb - 23:41:27 10° WSW 23:52:42 26° SSW 00:05:33 10° SSE visible
29 Feb - 17:34:03 10° SSW 17:40:23 22° SSE 17:49:05 10° ESE daylight
29 Feb - 19:39:19 10° SW 19:48:25 36° S 20:01:37 10° ESE visible
29 Feb - 21:46:56 10° WSW 21:57:50 34° SSW 22:12:07 10° SE visible
29 Feb - 23:57:18 10° WSW 00:07:24 21° SSW 00:18:46 10° S visible
01 Mar - 17:48:20 10° SSW 17:55:00 25° SSE 18:04:26 10° ESE visible
01 Mar - 19:54:11 10° WSW 20:03:16 36° S 20:16:26 10° ESE visible
01 Mar - 22:02:10 10° WSW 22:12:41 31° SSW 22:26:17 10° SE visible
02 Mar - 00:13:44 10° WSW 00:22:03 17° SW 00:31:14 10° S visible
02 Mar - 16:01:28 10° SSE 16:02:50 10° SE 16:04:17 10° SE daylight
02 Mar - 18:02:49 10° SW 18:09:40 28° SSE 18:19:36 10° ESE visible
02 Mar - 20:09:07 10° WSW 20:18:08 35° S 20:31:07 10° SE visible
02 Mar - 22:17:32 10° WSW 22:27:31 27° SSW 22:40:10 10° SSE visible
03 Mar - 00:31:32 10° WSW 00:36:41 12° SW 00:42:09 10° SSW visible
03 Mar - 16:13:52 10° S 16:17:17 14° SE 16:21:24 10° ESE daylight
03 Mar - 18:17:27 10° SW 18:24:24 29° SSE 18:34:37 10° ESE visible
03 Mar - 20:24:08 10° WSW 20:33:00 32° S 20:45:38 10° SE visible
03 Mar - 22:33:08 10° WSW 22:42:19 23° SSW 22:53:39 10° SSE visible
04 Mar - 16:27:35 10° S 16:31:49 17° SSE 16:37:14 10° ESE daylight
04 Mar - 18:32:12 10° SW 18:39:11 30° S 18:49:31 10° ESE visible
04 Mar - 20:39:16 10° WSW 20:47:53 30° S 20:59:56 10° SE visible
04 Mar - 22:49:10 10° WSW 22:57:05 18° SSW 23:06:33 10° S visible
05 Mar - 16:41:45 10° SSW 16:46:24 19° SSE 16:52:40 10° ESE daylight
05 Mar - 18:47:02 10° SW 18:54:01 30° S 19:04:17 10° ESE visible
05 Mar - 20:54:31 10° WSW 21:02:45 26° SSW 21:13:59 10° SSE visible
05 Mar - 23:06:01 10° WSW 23:11:50 14° SSW 23:18:26 10° S visible
